Weather History for DeKalb, IL

Change the Weather History Date:

Friday, November 1, 2013

  Actual Average (KARR) Record (KARR)
Temperature  
Mean Temperature 45 °F 45 °F  
Max Temperature 48 °F 56 °F 76 °F (2000)
Min Temperature 42 °F 34 °F 20 °F (2006)
Degree Days  
Heating Degree Days 20 20  
Month to date heating degree days 20  
Since 1 July heating degree days 627  
Cooling Degree Days 0 0  
Month to date cooling degree days 0  
Year to date cooling degree days 655  
Moisture  
Dew Point 42 °F    
Average Humidity 88    
Maximum Humidity 91    
Minimum Humidity 84    
Precipitation  
Precipitation 0.03 in 0.13 in 0.86 in (2004)
Month to date precipitation 0.13  
Year to date precipitation 31.89  
Sea Level Pressure  
Sea Level Pressure 29.59 in    
Wind  
Wind Speed 14 mph (West)    
Max Wind Speed 28 mph    
Max Gust Speed 36 mph    
Visibility 9 miles    
Events Rain    
T = Trace of Precipitation, MM = Missing Value Source: NWS Daily Summary

Daily Weather History Graph

Daily Weather History Graph

Search for Another Location

Airport:

Trip Planner

Search our weather history database for the weather conditions in past years. The results will help you decide how hot, cold, wet, or windy it might be!

Date:

Astronomy

Nov. 01, 2013 Rise Set
Actual Time 7:27 AM CDT 5:48 PM CDT
Civil Twilight 6:58 AM CDT 6:17 PM CDT
Nautical Twilight 6:25 AM CDT 6:50 PM CDT
Astronomical Twilight 5:53 AM CDT 7:22 PM CDT
Moon 5:18 AM CDT (11/1) 4:42 PM CDT (11/1)
Length of Visible Light 11h 18m
Length of Day
10h 20m
Waning Crescent, 4% of the Moon is Illuminated
Nov 1
Waning Crescent
Nov 3
New
Nov 9
First Quarter
Nov 17
Full
Nov 25
Last Quarter

Hourly Weather History & Observations

Time (CDT) Temp. Windchill Dew Point Humidity Pressure Visibility Wind Dir Wind Speed Gust Speed Precip Events Conditions
12:15 AM 45.5 °F 38.3 °F 42.8 °F 90% 29.41 in 10.0 mi West 17.3 mph 23.0 mph N/A   Overcast
12:35 AM 45.1 °F 37.3 °F 41.9 °F 88% 29.42 in 10.0 mi West 19.6 mph 27.6 mph N/A   Overcast
12:55 AM 44.4 °F 36.6 °F 41.0 °F 88% 29.42 in 10.0 mi West 18.4 mph 26.5 mph N/A   Mostly Cloudy
1:15 AM 44.1 °F 36.5 °F 40.5 °F 87% 29.43 in 10.0 mi West 17.3 mph 31.1 mph N/A   Overcast
1:35 AM 43.9 °F 34.1 °F 40.1 °F 87% 29.42 in 10.0 mi West 27.6 mph 35.7 mph N/A   Overcast
1:55 AM 43.7 °F 35.4 °F 40.1 °F 87% 29.43 in 10.0 mi West 19.6 mph 28.8 mph N/A   Mostly Cloudy
2:35 AM 42.8 °F 34.3 °F 39.4 °F 88% 29.44 in 10.0 mi West 19.6 mph 25.3 mph N/A   Scattered Clouds
2:55 AM 42.3 °F 34.4 °F 39.2 °F 89% 29.45 in 10.0 mi West 16.1 mph 21.9 mph N/A   Clear
3:15 AM 42.1 °F 33.9 °F 39.2 °F 90% 29.45 in 10.0 mi WSW 17.3 mph 23.0 mph N/A   Clear
3:35 AM 42.1 °F 34.5 °F 39.2 °F 90% 29.45 in 10.0 mi West 15.0 mph 21.9 mph N/A   Clear
3:55 AM 42.3 °F 35.9 °F 39.6 °F 90% 29.46 in 7.0 mi West 11.5 mph 21.9 mph N/A   Scattered Clouds
4:15 AM 42.8 °F 36.2 °F 39.7 °F 89% 29.47 in 10.0 mi WSW 12.7 mph - N/A   Overcast
4:35 AM 43.2 °F 37.4 °F 40.1 °F 89% 29.47 in 10.0 mi WSW 10.4 mph - N/A   Overcast
4:55 AM 43.7 °F 36.9 °F 40.1 °F 87% 29.48 in 10.0 mi WSW 13.8 mph 19.6 mph N/A   Overcast
5:15 AM 43.9 °F 36.8 °F 40.1 °F 87% 29.49 in 10.0 mi West 15.0 mph 19.6 mph N/A   Overcast
5:35 AM 44.1 °F 37.4 °F 40.3 °F 87% 29.50 in 10.0 mi WSW 13.8 mph 17.3 mph N/A   Overcast
5:55 AM 44.1 °F 37.7 °F 40.6 °F 88% 29.51 in 10.0 mi West 12.7 mph 19.6 mph N/A   Overcast
6:15 AM 44.4 °F 38.2 °F 40.5 °F 86% 29.52 in 10.0 mi West 12.7 mph 17.3 mph N/A   Overcast
6:35 AM 44.2 °F 38.4 °F 40.5 °F 87% 29.52 in 10.0 mi West 11.5 mph 17.3 mph N/A   Overcast
6:55 AM 44.6 °F 37.8 °F 40.1 °F 84% 29.52 in 10.0 mi WSW 15.0 mph - N/A   Overcast
7:15 AM 44.6 °F 38.1 °F 40.5 °F 85% 29.53 in 10.0 mi WSW 13.8 mph - N/A   Overcast
7:35 AM 44.6 °F 38.4 °F 41.0 °F 87% 29.53 in 10.0 mi WSW 12.7 mph - N/A   Overcast
7:55 AM 44.6 °F 38.4 °F 41.0 °F 87% 29.54 in 10.0 mi West 12.7 mph - N/A   Overcast
8:15 AM 44.6 °F 37.8 °F 41.2 °F 88% 29.55 in 10.0 mi WSW 15.0 mph 19.6 mph N/A   Overcast
8:35 AM 44.8 °F 38.3 °F 41.5 °F 88% 29.55 in 10.0 mi WSW 13.8 mph 19.6 mph N/A   Overcast
8:55 AM 45.1 °F 39.5 °F 41.9 °F 88% 29.56 in 10.0 mi WSW 11.5 mph 18.4 mph N/A   Overcast
9:15 AM 45.1 °F 38.8 °F 41.9 °F 88% 29.57 in 10.0 mi West 13.8 mph 18.4 mph N/A   Overcast
9:35 AM 45.1 °F 38.8 °F 41.4 °F 87% 29.57 in 10.0 mi West 13.8 mph 18.4 mph N/A   Overcast
9:55 AM 45.1 °F 39.5 °F 41.5 °F 87% 29.58 in 10.0 mi West 11.5 mph 18.4 mph N/A   Overcast
10:15 AM 45.1 °F 40.3 °F 41.5 °F 87% 29.58 in 10.0 mi West 9.2 mph - N/A   Overcast
10:35 AM 45.1 °F 39.1 °F 41.5 °F 87% 29.58 in 10.0 mi West 12.7 mph 17.3 mph N/A   Overcast
10:55 AM 45.5 °F 39.9 °F 41.5 °F 86% 29.59 in 10.0 mi West 11.5 mph 16.1 mph N/A   Overcast
11:15 AM 45.9 °F 40.4 °F 42.1 °F 87% 29.59 in 10.0 mi West 11.5 mph - N/A   Overcast
11:35 AM 46.6 °F - 42.8 °F 87% 29.60 in 10.0 mi West 11.5 mph - N/A   Overcast
11:55 AM 46.8 °F - 42.8 °F 86% 29.60 in 10.0 mi West 11.5 mph - N/A   Overcast
12:15 PM 46.8 °F - 42.8 °F 86% 29.61 in 10.0 mi West 11.5 mph - N/A   Overcast
12:35 PM 47.1 °F - 42.8 °F 85% 29.60 in 10.0 mi West 13.8 mph - N/A   Overcast
12:55 PM 47.5 °F - 43.3 °F 86% 29.60 in 10.0 mi West 13.8 mph 17.3 mph N/A   Overcast
1:35 PM 47.5 °F - 43.2 °F 85% 29.60 in 10.0 mi West 12.7 mph 20.7 mph N/A   Overcast
1:55 PM 48.0 °F - 43.7 °F 85% 29.61 in 10.0 mi West 15.0 mph - N/A   Overcast
2:15 PM 47.5 °F - 43.3 °F 86% 29.61 in 10.0 mi West 15.0 mph 19.6 mph N/A   Overcast
2:35 PM 47.3 °F - 43.2 °F 86% 29.62 in 10.0 mi West 15.0 mph 23.0 mph N/A   Overcast
2:55 PM 47.3 °F - 43.0 °F 85% 29.63 in 10.0 mi West 16.1 mph 21.9 mph N/A   Overcast
3:15 PM 46.9 °F - 43.0 °F 86% 29.63 in 10.0 mi West 15.0 mph 21.9 mph N/A   Overcast
4:55 PM 46.4 °F 41.9 °F 43.3 °F 89% 29.66 in 7.0 mi West 9.2 mph - 0.01 in Rain Light Rain
5:15 PM 46.4 °F 41.9 °F 43.7 °F 90% 29.67 in 5.0 mi West 9.2 mph - N/A   Drizzle
5:35 PM 46.4 °F 41.9 °F 43.7 °F 90% 29.67 in 5.0 mi West 9.2 mph - N/A   Drizzle
5:55 PM 46.4 °F 41.5 °F 43.7 °F 90% 29.68 in 5.0 mi West 10.4 mph - 0.01 in   Drizzle
6:15 PM 46.4 °F 41.9 °F 43.7 °F 90% 29.69 in 7.0 mi West 9.2 mph - N/A   Drizzle
6:35 PM 46.4 °F 42.4 °F 43.7 °F 90% 29.70 in 5.0 mi West 8.1 mph - 0.01 in Rain Rain
6:55 PM 46.4 °F 42.9 °F 43.7 °F 90% 29.71 in 5.0 mi West 6.9 mph - 0.01 in   Drizzle
7:15 PM 46.4 °F 43.5 °F 43.9 °F 91% 29.71 in 7.0 mi West 5.8 mph - N/A   Drizzle
7:35 PM 46.4 °F 42.4 °F 43.9 °F 91% 29.71 in 4.0 mi West 8.1 mph - N/A Rain Light Rain
7:55 PM 46.4 °F 42.4 °F 43.9 °F 91% 29.72 in 4.0 mi West 8.1 mph - N/A   Overcast
8:35 PM 46.4 °F 41.9 °F 43.9 °F 91% 29.72 in 7.0 mi West 9.2 mph - N/A   Overcast
8:55 PM 46.4 °F 41.9 °F 43.7 °F 90% 29.72 in 7.0 mi West 9.2 mph - N/A   Overcast
9:15 PM 46.0 °F 41.4 °F 43.3 °F 90% 29.72 in 7.0 mi West 9.2 mph - N/A   Overcast
9:35 PM 45.9 °F 41.2 °F 43.2 °F 90% 29.73 in 7.0 mi West 9.2 mph - N/A   Overcast
10:15 PM 44.6 °F 40.2 °F 41.9 °F 90% 29.74 in 7.0 mi West 8.1 mph - N/A   Clear
10:35 PM 44.6 °F 40.2 °F 41.9 °F 90% 29.74 in 7.0 mi West 8.1 mph - N/A   Clear
10:55 PM 43.9 °F 38.8 °F 41.2 °F 90% 29.74 in 7.0 mi West 9.2 mph - N/A   Clear
11:15 PM 43.9 °F 38.8 °F 41.2 °F 90% 29.74 in 7.0 mi West 9.2 mph - N/A   Clear
11:35 PM 43.7 °F 38.1 °F 40.8 °F 90% 29.74 in 7.0 mi West 10.4 mph - N/A   Clear
11:55 PM 43.3 °F 37.7 °F 40.6 °F 90% 29.75 in 7.0 mi West 10.4 mph - N/A   Scattered Clouds